COSMOS 2528 (43657 NORAD) Tracking and Keplerian Element Data

This shows tracking and keplerian element data for the satellite.

Feedback or suggestion? Click here.




ElementValue
Catalog43657
NameCOSMOS 2528
Epoch Orbit361
Epoch Day323.71560403
Epoch Year2018
RAAN320.4259
Inclination67.1511
Eccentricity0.0006664
Argument of Perigee265.6537
Mean Anonmoly94.3784
Mean Motion13.96669892
Decay Rate-7.5E-07
L11 43657U 18082A 18323.71560403 -.00000075 00000-0 00000+0 0 9999
L22 43657 67.1511 320.4259 0006664 265.6537 94.3784 13.96669892 3613

Live tracking and technical data element details for COSMOS 2528 (NORAD 43657). COSMOS 2528 can be tracked NOW for your location showing map with azimuth and elevation plus other details from your city location.

Track the satellite on the map from your city or location and see movement details for azimuth, elevation, latitude, longitude, range, height, and movement on the map or in text.







IsCatalogInMostPopularTable: catalog: 43657, numindb: 11
Update: records affected: 1



GetName: 43657 COSMOS 2528

Hit Count: updated at: Tue, 20 Nov 2018 12:12:11 GMT